VA3XLC Weather Reports


time (UTC)temp
C
wind
direction
speed
KPH
gust
KPH
rain 1hr
cm
rain 24hr
cm
rain mn
cm
humidity
%
barometer
mb
20260510023752 11 330 3.2 4.8 0.00 0.00 0.00 61 975.2
20260510023252 11 348 4.8 6.4 0.00 0.00 0.00 62 975.1
20260510022230 11 25 4.8 6.4 0.00 0.00 0.00 61 974.6
20260510021730 11 38 4.8 8.0 0.00 0.00 0.00 61 974.5
20260510021229 11 44 4.8 8.0 0.00 0.00 0.00 63 974.4
20260510020729 12 29 4.8 9.7 0.00 0.00 0.00 65 974.2
20260510020229 12 11 1.6 4.8 0.00 0.00 0.00 65 974.4
20260510015728 12 19 3.2 6.4 0.00 0.00 0.00 64 974.3
20260510015227 12 0 4.8 8.0 0.00 0.00 0.00 63 974.1
20260510013124 12 33 1.6 3.2 0.00 0.00 0.00 67 973.6
20260510012102 12 0 6.4 8.0 0.00 0.00 0.00 68 973.5
20260510011602 12 343 1.6 4.8 0.00 0.00 0.00 75 973.3
20260510011102 12 0 0.0 0.0 0.00 0.00 0.00 80 973.3
20260510010602 12 34 1.6 3.2 0.00 0.00 0.00 80 973.1
20260510005040 12 241 1.6 1.6 0.00 0.00 0.00 80 972.8
20260510004540 12 252 3.2 3.2 0.00 0.00 0.00 80 972.7
20260510004040 12 242 1.6 1.6 0.00 0.00 0.00 80 972.7
20260510003540 12 266 3.2 4.8 0.00 0.00 0.00 80 972.6
20260510003040 12 0 0.0 0.0 0.00 0.00 0.00 80 972.5
20260510002540 13 327 1.6 3.2 0.00 0.00 0.00 80 972.3
20260510002039 13 0 0.0 0.0 0.00 0.00 0.00 79 972.2
20260510001539 13 0 0.0 0.0 0.00 0.00 0.00 78 972.1
20260510001039 13 38 3.2 3.2 0.00 0.00 0.00 77 971.9
20260510000539 13 0 0.0 0.0 0.00 0.00 0.00 77 971.7
20260510000038 13 250 3.2 4.8 0.00 0.00 0.00 76 971.6
20260509235016 13 225 1.6 4.8 0.00 0.00 0.00 76 971.6
20260509234516 13 291 3.2 6.4 0.00 0.00 0.00 75 971.6
20260509234016 13 255 3.2 11.3 0.00 0.00 0.00 75 971.5
20260509233515 14 249 6.4 9.7 0.00 0.00 0.00 74 971.4
20260509233015 14 250 6.4 9.7 0.00 0.00 0.00 73 971.2
20260509231953 15 248 4.8 6.4 0.00 0.00 0.00 73 971.2
20260509231452 15 259 4.8 8.0 0.00 0.00 0.00 73 971.2
20260509230952 15 247 4.8 6.4 0.00 0.00 0.00 73 971.1
20260509230452 15 251 4.8 8.0 0.00 0.00 0.00 72 971.0
20260509225431 15 210 3.2 4.8 0.00 0.00 0.00 71 970.8
20260509224931 15 216 1.6 4.8 0.00 0.00 0.00 72 970.8
20260509224430 15 246 3.2 6.4 0.00 0.00 0.00 72 970.7
20260509223409 14 249 6.4 9.7 0.00 0.00 0.00 72 970.5
20260509222909 14 226 3.2 6.4 0.00 0.00 0.00 74 970.5
20260509222409 14 267 8.0 9.7 0.00 0.00 0.00 73 970.4
20260509221908 13 243 6.4 8.0 0.00 0.00 0.00 73 970.4
20260509220325 12 266 8.0 11.3 0.00 0.00 0.00 75 970.4
20260509215825 12 256 4.8 9.7 0.00 0.00 0.00 77 970.4
20260509215325 12 257 6.4 9.7 0.00 0.00 0.00 78 970.4
20260509214304 11 199 4.8 9.7 0.00 0.00 0.00 81 970.6
20260509213803 11 266 4.8 12.9 0.00 0.00 0.00 81 970.7
20260509213303 11 230 6.4 9.7 0.00 0.00 0.00 81 970.8
20260509212803 11 268 8.0 17.7 0.00 0.00 0.00 81 970.8
20260509211742 11 257 3.2 6.4 0.00 0.00 0.00 81 970.8
20260509211242 11 240 4.8 9.7 0.00 0.00 0.00 82 970.8
20260509210741 11 259 9.7 12.9 0.00 0.00 0.00 81 970.7
20260509210241 11 256 8.0 11.3 0.00 0.00 0.00 82 970.8
20260509205740 10 258 6.4 11.3 0.00 0.00 0.00 84 970.8
20260509204719 10 259 6.4 9.7 0.00 0.00 0.00 83 970.8
20260509204219 10 263 11.3 16.1 0.00 0.00 0.00 83 971.1
20260509203719 10 271 12.9 20.9 0.00 0.00 0.00 84 971.0
20260509203219 11 271 9.7 16.1 0.00 0.00 0.00 82 971.5
20260509202718 12 313 9.7 14.5 0.00 0.00 0.00 77 971.7
20260509202218 14 341 17.7 25.7 0.00 0.00 0.00 70 971.7
20260509201156 15 258 16.1 24.1 0.00 0.00 0.00 71 969.8
20260509200656 15 265 12.9 27.4 0.00 0.00 0.00 71 969.9
20260509200156 15 250 12.9 17.7 0.00 0.00 0.00 71 969.9
20260509195656 15 252 16.1 27.4 0.00 0.00 0.00 71 970.0
20260509195156 15 265 20.9 38.6 0.00 0.00 0.00 71 970.0
20260509194655 15 242 16.1 40.2 0.00 0.00 0.00 71 969.9
20260509193634 15 255 11.3 17.7 0.00 0.00 0.00 71 970.0
20260509193134 15 247 8.0 12.9 0.00 0.00 0.00 71 970.0
20260509192634 15 253 17.7 27.4 0.00 0.00 0.00 71 969.8
20260509192134 15 245 11.3 16.1 0.00 0.00 0.00 71 970.0
20260509191633 15 228 8.0 17.7 0.00 0.00 0.00 72 970.2
20260509190612 14 243 9.7 17.7 0.00 0.00 0.00 72 970.3
20260509190112 15 231 4.8 9.7 0.00 0.00 0.00 72 970.3
20260509185612 15 223 9.7 17.7 0.00 0.00 0.00 72 970.2
20260509184551 14 264 14.5 19.3 0.00 0.00 0.00 72 970.3
20260509183530 14 229 6.4 11.3 0.00 0.00 0.00 73 970.5
20260509183029 14 225 8.0 14.5 0.00 0.00 0.00 73 970.6
20260509182529 14 239 6.4 14.5 0.00 0.00 0.00 75 970.7
20260509182029 13 192 8.0 11.3 0.00 0.00 0.00 75 970.9
20260509181529 14 258 9.7 19.3 0.00 0.00 0.00 75 971.1
20260509181029 14 211 4.8 8.0 0.00 0.00 0.00 74 971.3
20260509180529 14 255 4.8 8.0 0.00 0.00 0.00 73 971.3
20260509180028 15 245 8.0 16.1 0.00 0.00 0.00 73 971.1
20260509175528 15 252 8.0 12.9 0.00 0.00 0.00 73 970.9
20260509175027 15 262 8.0 12.9 0.00 0.00 0.00 73 970.9
20260509174526 15 196 8.0 14.5 0.00 0.00 0.00 72 970.9
20260509174026 15 193 6.4 11.3 0.00 0.00 0.00 73 970.8
20260509173526 15 186 11.3 19.3 0.00 0.00 0.00 74 970.7
20260509173025 15 190 8.0 16.1 0.00 0.00 0.00 72 970.8
20260509172525 15 249 9.7 19.3 0.00 0.00 0.00 73 970.9
20260509172025 15 241 9.7 16.1 0.00 0.00 0.00 73 970.9
20260509171525 15 206 11.3 17.7 0.00 0.00 0.00 72 971.2
20260509171025 15 247 8.0 12.9 0.00 0.00 0.00 73 971.3
20260509170525 15 253 8.0 14.5 0.00 0.00 0.00 72 971.2
20260509170024 15 210 6.4 16.1 0.00 0.00 0.00 71 971.2
20260509165524 15 252 6.4 11.3 0.00 0.00 0.00 72 971.3
20260509164503 15 201 6.4 9.7 0.00 0.00 0.00 72 971.6
20260509164003 15 197 4.8 9.7 0.00 0.00 0.00 72 971.6
20260509162942 15 265 4.8 12.9 0.00 0.00 0.00 70 971.8
20260509162441 15 207 6.4 11.3 0.00 0.00 0.00 71 971.9
20260509161940 15 198 9.7 17.7 0.00 0.00 0.00 71 971.9
20260509160919 15 169 9.7 12.9 0.00 0.00 0.00 72 972.3
20260509155858 15 238 8.0 12.9 0.00 0.00 0.00 71 972.8
20260509155357 14 271 6.4 9.7 0.00 0.00 0.00 71 972.7
20260509154857 14 230 4.8 8.0 0.00 0.00 0.00 72 972.7
20260509154357 15 215 4.8 6.4 0.00 0.00 0.00 72 972.8
20260509153856 15 197 6.4 11.3 0.00 0.00 0.00 71 972.9
20260509153356 15 221 6.4 11.3 0.00 0.00 0.00 71 972.8
20260509152855 15 232 4.8 8.0 0.00 0.00 0.00 72 972.7
20260509152355 15 243 4.8 9.7 0.00 0.00 0.00 71 972.7
20260509151855 15 247 4.8 6.4 0.00 0.00 0.00 73 972.7
20260509151355 14 182 9.7 14.5 0.00 0.00 0.00 73 972.6
20260509150854 14 199 4.8 8.0 0.00 0.00 0.00 74 972.6
20260509150354 14 183 8.0 12.9 0.00 0.00 0.00 74 972.8
20260509145853 13 254 4.8 8.0 0.00 0.00 0.00 75 972.9
20260509145353 13 239 4.8 8.0 0.00 0.00 0.00 75 972.8
20260509144853 13 246 8.0 17.7 0.00 0.00 0.00 74 972.8
20260509144353 13 239 4.8 8.0 0.00 0.00 0.00 74 972.7
20260509143853 13 222 4.8 9.7 0.00 0.00 0.00 74 972.7
20260509143353 13 193 4.8 8.0 0.00 0.00 0.00 75 972.7
20260509142852 13 182 8.0 14.5 0.00 0.00 0.00 75 972.8
20260509142351 12 225 4.8 9.7 0.00 0.00 0.00 76 972.9
20260509141851 12 256 6.4 14.5 0.00 0.00 0.00 77 972.9
20260509141351 12 189 4.8 11.3 0.00 0.00 0.00 79 973.0
20260509140329 11 266 12.9 19.3 0.00 0.00 0.00 79 973.0
20260509135829 11 241 9.7 12.9 0.00 0.00 0.00 80 973.1
20260509134806 11 269 4.8 9.7 0.00 0.00 0.00 83 973.2
20260509134306 11 268 9.7 14.5 0.00 0.00 0.00 83 973.2
20260509133806 11 263 8.0 11.3 0.00 0.00 0.00 84 973.2
20260509133306 10 245 8.0 16.1 0.00 0.00 0.00 85 973.3
20260509132806 10 253 9.7 17.7 0.00 0.00 0.00 86 973.3
20260509132307 10 258 6.4 9.7 0.00 0.00 0.00 86 973.3
20260509131244 10 225 6.4 11.3 0.00 0.00 0.00 88 973.3
20260509130744 10 260 9.7 14.5 0.00 0.00 0.00 89 973.4
20260509130243 10 271 11.3 12.9 0.00 0.00 0.00 90 973.4
20260509125743 9 262 9.7 16.1 0.00 0.00 0.00 91 973.4
20260509125243 9 234 6.4 11.3 0.00 0.00 0.00 92 973.3
20260509124743 9 256 11.3 14.5 0.00 0.00 0.00 92 973.3
20260509124243 9 242 6.4 12.9 0.00 0.00 0.00 92 973.4
20260509123221 9 278 6.4 12.9 0.00 0.00 0.00 92 973.5
20260509122720 9 285 6.4 11.3 0.00 0.00 0.00 92 973.5
20260509122220 9 227 3.2 4.8 0.00 0.00 0.00 93 973.5
20260509121158 9 254 3.2 4.8 0.00 0.00 0.00 93 973.6
20260509120658 9 261 4.8 8.0 0.00 0.00 0.00 93 973.6
20260509115114 9 259 6.4 14.5 0.00 0.00 0.00 93 973.6
20260509114614 9 255 8.0 12.9 0.00 0.00 0.00 93 973.8
20260509114114 9 264 4.8 8.0 0.00 0.00 0.00 93 973.9
20260509113614 9 258 8.0 12.9 0.00 0.00 0.00 92 973.8
20260509113113 9 257 9.7 12.9 0.00 0.00 0.00 92 973.7
20260509112613 9 259 8.0 9.7 0.00 0.00 0.00 92 973.6
20260509112113 9 261 6.4 9.7 0.00 0.00 0.00 92 973.5
20260509111051 9 240 6.4 12.9 0.00 0.00 0.00 91 973.4
20260509110551 9 183 6.4 8.0 0.00 0.00 0.00 91 973.3
20260509110051 10 222 3.2 4.8 0.00 0.00 0.00 91 973.3
20260509105551 10 185 4.8 6.4 0.00 0.00 0.00 91 973.3
20260509105051 10 235 3.2 6.4 0.00 0.00 0.00 90 973.3
20260509104550 10 217 4.8 8.0 0.00 0.00 0.00 90 973.3
20260509103528 9 178 4.8 6.4 0.00 0.00 0.00 90 973.3
20260509102507 9 203 3.2 4.8 0.00 0.00 0.00 90 973.5
20260509102007 9 198 3.2 4.8 0.00 0.00 0.00 90 973.5
20260509101507 9 178 1.6 4.8 0.00 0.00 0.00 89 973.5
20260509101007 10 218 3.2 4.8 0.00 0.00 0.00 89 973.6
20260509100507 10 216 4.8 6.4 0.00 0.00 0.00 89 973.6
20260509095445 10 227 3.2 8.0 0.00 0.00 0.00 89 973.5
20260509094945 10 180 1.6 3.2 0.00 0.00 0.00 88 973.6
20260509094445 10 173 6.4 8.0 0.00 0.00 0.00 88 973.6
20260509093945 10 202 3.2 4.8 0.00 0.00 0.00 88 973.7
20260509093445 10 196 3.2 9.7 0.00 0.00 0.00 88 973.8
20260509092945 10 234 3.2 4.8 0.00 0.00 0.00 88 973.8
20260509092444 10 241 4.8 8.0 0.00 0.00 0.00 88 973.8
20260509091944 10 208 3.2 3.2 0.00 0.00 0.00 88 973.9
20260509091444 10 237 3.2 6.4 0.00 0.00 0.00 88 973.9
20260509090943 10 189 3.2 6.4 0.00 0.00 0.00 88 973.8
20260509090443 9 173 4.8 6.4 0.00 0.00 0.00 88 973.8
20260509085943 9 270 3.2 6.4 0.00 0.00 0.00 88 973.8
20260509084922 9 176 4.8 8.0 0.00 0.00 0.00 88 973.8
20260509083901 9 188 6.4 12.9 0.00 0.00 0.00 87 973.8
20260509083401 9 185 6.4 9.7 0.00 0.00 0.00 87 973.8
20260509082901 10 175 9.7 12.9 0.00 0.00 0.00 87 973.8
20260509082400 10 176 6.4 11.3 0.00 0.00 0.00 86 973.8
20260509081900 10 175 6.4 9.7 0.00 0.00 0.00 86 973.7
20260509081400 10 185 3.2 4.8 0.00 0.00 0.00 86 973.8
20260509080900 10 176 8.0 12.9 0.00 0.00 0.00 85 973.7
20260509080400 10 199 4.8 6.4 0.00 0.00 0.00 85 973.8
20260509075859 10 176 4.8 8.0 0.00 0.00 0.00 85 973.9
20260509074837 10 181 8.0 9.7 0.00 0.00 0.00 84 974.0
20260509073255 9 193 4.8 9.7 0.00 0.00 0.00 83 974.1
20260509072755 9 189 6.4 9.7 0.00 0.00 0.00 82 974.2
20260509072255 9 198 4.8 9.7 0.00 0.00 0.00 82 974.2
20260509071755 9 187 4.8 6.4 0.00 0.00 0.00 81 974.2
20260509071254 9 196 4.8 8.0 0.00 0.00 0.00 80 974.2
20260509070754 9 180 9.7 12.9 0.00 0.00 0.00 80 974.2
20260509070254 9 181 8.0 12.9 0.00 0.00 0.00 80 974.2
20260509065754 9 186 4.8 8.0 0.00 0.00 0.00 79 974.4
20260509065253 9 180 8.0 9.7 0.00 0.00 0.00 79 974.4
20260509064753 9 182 8.0 11.3 0.00 0.00 0.00 78 974.5
20260509063731 9 193 6.4 8.0 0.00 0.00 0.00 78 974.5
20260509063231 9 187 4.8 6.4 0.00 0.00 0.00 78 974.5
20260509062731 9 181 6.4 9.7 0.00 0.00 0.00 78 974.5
20260509062231 9 178 8.0 11.3 0.00 0.00 0.00 78 974.6
20260509061730 9 188 3.2 6.4 0.00 0.00 0.00 78 974.6
20260509061230 8 188 4.8 8.0 0.00 0.00 0.00 78 974.6
20260509060730 8 179 3.2 6.4 0.00 0.00 0.00 78 974.8
20260509060230 8 179 4.8 6.4 0.00 0.00 0.00 77 974.9
20260509055209 8 185 4.8 4.8 0.00 0.00 0.00 77 975.1
20260509054709 8 191 1.6 3.2 0.00 0.00 0.00 77 975.1
20260509054208 8 187 3.2 4.8 0.00 0.00 0.00 77 975.2
20260509053708 8 151 3.2 3.2 0.00 0.00 0.00 77 975.3
20260509052647 8 0 0.0 0.0 0.00 0.00 0.00 77 975.4
20260509052147 8 0 0.0 0.0 0.00 0.00 0.00 77 975.4
20260509051647 8 194 1.6 4.8 0.00 0.00 0.00 77 975.4
20260509051147 8 213 1.6 4.8 0.00 0.00 0.00 76 975.4
20260509050646 8 186 6.4 8.0 0.00 0.00 0.00 76 975.4
20260509050146 8 199 4.8 6.4 0.00 0.00 0.00 76 975.5
20260509045646 8 192 4.8 8.0 0.00 0.00 0.00 75 975.5
20260509045146 8 187 3.2 4.8 0.00 0.00 0.00 75 975.6
20260509044646 8 183 3.2 4.8 0.00 0.00 0.00 75 975.7
20260509044146 8 162 3.2 4.8 0.00 0.00 0.00 75 975.8
20260509043645 8 187 3.2 4.8 0.00 0.00 0.00 75 975.8
20260509043144 8 182 4.8 6.4 0.00 0.00 0.00 75 975.7
20260509041602 8 203 3.2 4.8 0.00 0.00 0.00 74 975.9
20260509041101 8 192 6.4 9.7 0.00 0.00 0.00 74 975.8
20260509040601 8 185 8.0 11.3 0.00 0.00 0.00 74 975.9
20260509040101 8 192 3.2 4.8 0.00 0.00 0.00 74 976.1
20260509035601 8 194 4.8 4.8 0.00 0.00 0.00 73 976.1
20260509035100 8 173 4.8 8.0 0.00 0.00 0.00 73 976.1
20260509034600 8 191 6.4 8.0 0.00 0.00 0.00 73 976.1
20260509034100 8 179 4.8 4.8 0.00 0.00 0.00 73 976.1
20260509033600 8 186 4.8 6.4 0.00 0.00 0.00 72 976.1
20260509033059 8 183 8.0 12.9 0.00 0.00 0.00 72 976.1
20260509032559 8 184 6.4 6.4 0.00 0.00 0.00 71 976.2
20260509032059 8 185 6.4 9.7 0.00 0.00 0.00 70 976.2
20260509031558 8 210 4.8 4.8 0.00 0.00 0.00 70 976.2
20260509031058 8 213 3.2 6.4 0.00 0.00 0.00 69 976.3
20260509030037 9 203 3.2 6.4 0.00 0.00 0.00 68 976.4
20260509025537 9 219 3.2 6.4 0.00 0.00 0.00 67 976.4
20260509025036 9 198 3.2 4.8 0.00 0.00 0.00 67 976.5
20260509024536 9 208 3.2 4.8 0.00 0.00 0.00 66 976.5
20260509024036 9 193 1.6 3.2 0.00 0.00 0.00 66 976.5